Weather in Kryzhopil

Ukraine / Vinnytsia Region     48°22′52″N   28°52′03″E
temp.,
°C
wind,
m/s
gust,
m/s
humid.,
%
clouds,
%
prec.,
mm/h
press.,
hPa
HPBL,
m
22 october, fri
fri2200:00+12wsw495112 0.0 1010255
03:00+13wsw41049100 0.0 1010261
06:00+13wsw4105999 0.0 1011312
09:00+14w496399 0.0 1012419
12:00+16wnw574741 0.0 10141202
15:00+19w683016 0.0 10132047
18:00+15w333920 0.0 101331
21:00+11nw22543 0.0 101515
23 october, sat
sat2300:00+10wsw355865 0.0 101679
03:00+9wsw3663100 0.0 1016112
06:00+11w41161100 0.0 1015578
09:00+11wnw3866100 0.1 1017681
12:00+10nw69496 0.0 10191085
15:00+13nw79295 0.0 10191733
18:00+9nw48360 0.0 1020205
21:00+6wnw384999 0.0 1022157
24 october, sun
sun2400:00+5wnw365857 0.0 1024113
03:00+5w41063100 0.0 1024308
06:00+3wnw410788 0.0 1025262
09:00+4wnw5118187 0.0 1027496
12:00+7nw71065100 0.0 10281158
15:00+8nw6948100 0.1 10271836
18:00+7nw61052100 0.0 10291325
21:00+6nnw595799 0.1 10311138
25 october, mon
mon2500:00+3n276596 0.0 1032299
03:00+2nw336612 0.0 103328
06:00+1n35715 0.0 103381
09:00+2nne24695 0.0 1035150
12:00+6ne33460 0.0 1034855
15:00+9e11355 0.0 10331037
18:00+6ese22425 0.0 103312
21:00+4se35495 0.0 103367
26 october, tue
tue2600:00+2se48525 0.0 1033132
03:00+1sse49564 0.0 1033153
06:00+1sse49595 0.0 1032167
09:00+2sse511535 0.0 1031314
12:00+8s79416 0.0 1030759
15:00+11s793455 0.0 1028941
18:00+8sse4845100 0.0 1027180
21:00+6sse51356100 0.0 1027365